Lexington Weather

Lexington, Massachusetts, USA

40°F
3/30/2020 9:36am 
  • Lexington Conditions: Mist, Overcast
  • Temperature: 40.1°F / 4.5°CWarmer 0.7°F than last hour.
  • Dew Point: 39.4°FIncreased 0.7°Fsince last hour.
  • Relative Humidity: 97
  • Wind: Wind from NE NE 2 mph, 10-min avg: 2 mph, gust: 6 mph
  • Barometer: 29.97 in Steady
  • Visibility: 2 miles
  • Rain Today: 0.02 in
  •   

Regional Weather Roundup
for Boston / Norton, MA

        
000
ASUS41 KBOX 281204
RWRBOX

REGIONAL WEATHER ROUNDUP
NATIONAL WEATHER SERVICE BOSTON/NORTON MA
800 AM EDT SAT MAR 28 2020

NOTE:  "FAIR" INDICATES FEW OR NO CLOUDS BELOW 12,000 FEET WITH NO 
SIGNIFICANT WEATHER AND/OR OBSTRUCTIONS TO VISIBILITY.

MAZALL-281300-
EASTERN MASSACHUSETTS
  
CITY           SKY/WX    TMP DP  RH WIND       PRES   REMARKS
BOSTON         FAIR      42  20  41 CALM      30.18R                  
6HR MIN TEMP:  36; 6HR MAX TEMP:  44;                                

BEVERLY        FAIR      37  25  61 CALM      30.17R                  
LAWRENCE       FAIR      37  25  61 S3        30.18R                  
BEDFORD        FAIR      37  26  64 CALM      30.17R                  
BLUE HILL        N/A     40  18  41 N6        30.14R                  
NORWOOD        FAIR      36  30  79 CALM      30.17R                  
MARSHFIELD     FAIR      36  32  87 CALM      30.17R                  
PLYMOUTH       FAIR      34  30  85 CALM      30.17R                  
TAUNTON        FAIR      32  29  88 CALM      30.17R                  
NEW BEDFORD    FAIR      35  33  92 CALM      30.16R                  
$$

MAZALL-281300-
CAPE COD AND THE ISLANDS
  
CITY           SKY/WX    TMP DP  RH WIND       PRES   REMARKS
FALMOUTH       NOT AVBL                                               
HYANNIS        FAIR      41  36  82 CALM      30.15R                  
CHATHAM        FAIR      43  35  73 CALM      30.17R                  
PROVINCETOWN   FAIR      37  35  92 CALM      30.18R                  
NANTUCKET      FAIR      43  36  76 E3        30.16R                  
MARTHAS VNYRD  FAIR      39  34  82 CALM      30.16R                  
$$
 
MAZALL-281300-
CENTRAL AND WESTERN MASSACHUSETTS
  
CITY           SKY/WX    TMP DP  RH WIND       PRES   REMARKS
WORCESTER      FAIR      41  14  33 N8        30.13S                  
6HR MIN TEMP:  38; 6HR MAX TEMP:  43;                                

FITCHBURG      FAIR      33  24  69 NW3       30.18R                  
ORANGE         FAIR      31  27  85 CALM      30.18R                  
SPRINGFIELD    PTSUNNY   33  28  81 CALM      30.15R                  
WESTFIELD      FAIR      35  28  75 N6        30.16R WCI  30          
NORTH ADAMS    FAIR      31  26  82 S5        30.15R WCI  26          
PITTSFIELD     FAIR      30  26  85 CALM      30.12R                  
$$
 
RIZALL-281300-
RHODE ISLAND
  
CITY           SKY/WX    TMP DP  RH WIND       PRES   REMARKS
PROVIDENCE     PTSUNNY   39  29  67 CALM      30.18R                  
6HR MIN TEMP:  31; 6HR MAX TEMP:  42;                                

NEWPORT        FAIR      45  22  40 CALM      30.17R                  
BLOCK ISLAND   FAIR      44  35  70 E7        30.17                   
SMITHFIELD     FAIR      39  23  52 CALM      30.17R                  
WESTERLY       FAIR      41  26  55 N3        30.17R                  
$$
 
CTZALL-281300-
CONNECTICUT
  
CITY           SKY/WX    TMP DP  RH WIND       PRES   REMARKS
BRADLEY INTL   PTSUNNY   36  29  75 N5        30.15R                  
6HR MIN TEMP:  30; 6HR MAX TEMP:  42;                                

HARTFORD       FAIR      39  31  72 CALM      30.16R                  
BRIDGEPORT     FAIR      47  26  44 NE13      30.13S                  
DANBURY        FAIR      39  28  64 N6        30.13R                  
GROTON         FAIR      40  26  57 NE7       30.16R                  
NEW HAVEN      FAIR      46  26  45 E8        30.14R                  
CHESTER        FAIR      43  21  42 CALM      30.14R                  
MERIDEN        FAIR      38  30  73 NW3       30.14S                  
WILLIMANTIC    FAIR      32  28  85 CALM      30.16R                  
OXFORD         FAIR      42  25  50 E6        30.13R                  
$$

MEZ002-015-021-024-NHZ003-005-008-011-012-014-VTZ005-008-281300-
NORTHERN NEW ENGLAND
  
CITY           SKY/WX    TMP DP  RH WIND       PRES   REMARKS
PORTLAND ME    FAIR      38  22  52 N3        30.15R                  
6HR MIN TEMP:  29; 6HR MAX TEMP:  38;                                

BANGOR ME      FAIR      34  22  61 W7        30.15R WCI  28          
CONCORD NH     FAIR      29  24  82 CALM      30.17R                  
MANCHESTER NH  FAIR      34  25  69 CALM      30.15R                  
NASHUA NH      FAIR      33  27  78 NW5       30.17R WCI  29          
PORTSMOUTH NH  MOSUNNY   37  22  54 W3        30.15R                  
JAFFREY NH     FAIR      28  23  81 CALM      30.14R                  
KEENE NH       FAIR      29  28  96 CALM      30.18R                  
BURLINGTON VT  FAIR      30  23  75 S3        30.13S                  
MT. WASHINGTON MOSUNNY   18   0  45 NW24        N/A  WCI   0          
$$

NYZ052-076-281300-
EASTERN NEW YORK
  
CITY           SKY/WX    TMP DP  RH WIND       PRES   REMARKS
ALBANY         PTSUNNY   35  28  75 N3        30.14R                  
6HR MIN TEMP:  30; 6HR MAX TEMP:  37;                                

NEW YORK CITY  PTSUNNY   47  34  60 NE8       30.10R                  
6HR MIN TEMP:  47; 6HR MAX TEMP:  51;                                

$$
 
ANZALL-281300-
MARINE OBSERVATIONS
  
STATION/POSITION TIME  TEMP    WIND        PRES    VSBY  WAVE
                       AIR SEA DIR/SP/G                  HT/PER
                 (UTC) (F)     (DEG/KT/KT) (MB)    (MI)  (FT/S)
BOSTON BUOY      1150   43 42  200/  4/  4 1021.4R         2/11
BUZZARDS BAY     1100           60/  5/  6 1022.1R
NANTUCKET SOUND  1140                        N/A           1
MASS BAY-STELLWA 1104   41 42   40/  4/  6 1019.1R  1 7/8  2/11
ISLE OF SHOALS   1100   39     320/  7/  8 1020.2R
S OF BLOCK IS    1130      44                N/A           3/ 8
$$

......................KEY.........................
  SKY/WX - SKY CONDITION/PRESENT WEATHER
  TMP    - TEMPERATURE IN FAHRENHEIT
  DWPT   - DEWPOINT IN FAHRENHEIT
  RH     - RELATIVE HUMIDITY IN PERCENT
  WIND   - DIRECTION AND SPEED IN MPH
  PRES   - MEAN SEA LEVEL PRESSURE IN INCHES OF HG
  WCI    - WIND CHILL INDEX
  VSB    - VISIBILITY IN MILES
  HX     - HEAT INDEX
  TC     - TEMPERATURE IN CELSIUS
  VRB    - VARIABLE WIND DIRECTION
  N/A    - NOT AVAILABLE
  
      

Other recent Regional Weather Roundups

Mon Mar 30, 9:04am

Mon Mar 30, 8:04am

Mon Mar 30, 7:04am

Mon Mar 30, 6:04am

Mon Mar 30, 5:04am

Mon Mar 30, 4:04am

Mon Mar 30, 3:05am

Mon Mar 30, 2:04am

Mon Mar 30, 1:04am

Mon Mar 30, 12:04am

Sun Mar 29, 11:04pm

Sun Mar 29, 10:05pm

Sun Mar 29, 9:04pm

Sun Mar 29, 8:04pm

Sun Mar 29, 7:04pm

Sun Mar 29, 6:04pm

Sun Mar 29, 5:05pm

Sun Mar 29, 4:04pm

Sun Mar 29, 3:04pm

Sun Mar 29, 2:04pm

Sun Mar 29, 1:05pm

Sun Mar 29, 12:04pm

Sun Mar 29, 11:04am

Sun Mar 29, 10:04am

Sun Mar 29, 9:04am

Sun Mar 29, 8:04am

Sun Mar 29, 7:04am

Sun Mar 29, 6:04am

Sun Mar 29, 5:04am

Sun Mar 29, 4:04am

Sun Mar 29, 3:04am

Sun Mar 29, 2:04am

Sun Mar 29, 1:04am

Sun Mar 29, 12:04am

Sat Mar 28, 11:05pm

Sat Mar 28, 10:04pm

Sat Mar 28, 9:04pm

Sat Mar 28, 8:04pm

Sat Mar 28, 7:04pm

Sat Mar 28, 6:04pm

Sat Mar 28, 5:05pm

Sat Mar 28, 4:04pm

Sat Mar 28, 3:04pm

Sat Mar 28, 2:04pm

Sat Mar 28, 1:05pm

Sat Mar 28, 12:04pm

Sat Mar 28, 11:04am

Sat Mar 28, 10:04am

Sat Mar 28, 9:04am

Sat Mar 28, 7:04am

Sat Mar 28, 6:04am

Sat Mar 28, 5:04am

Sat Mar 28, 4:04am

Sat Mar 28, 3:04am

Sat Mar 28, 2:04am

Sat Mar 28, 1:04am

Sat Mar 28, 12:04am

Fri Mar 27, 11:04pm

Fri Mar 27, 10:04pm

Fri Mar 27, 9:04pm

Fri Mar 27, 8:04pm

Fri Mar 27, 7:05pm

Fri Mar 27, 6:04pm

Fri Mar 27, 5:05pm

Fri Mar 27, 4:05pm

Fri Mar 27, 3:04pm

Fri Mar 27, 2:05pm

Fri Mar 27, 1:04pm

Fri Mar 27, 12:04pm

Fri Mar 27, 11:04am

Fri Mar 27, 10:04am

Meta data:

ID: 07458ae7-afc7-4243-ba39-14bb90762355
Link: https://api.weather.gov/products/07458ae7-afc7-4243-ba39-14bb90762355